Accueil
METAR-TAF:

METAR-TAF

Aéroports :

Plzeň, République Tchèque

latitude: 49-40-31N, longitude: 13-16-29E, altitude: 362 m

Observation

Le bulletin a été fait il y a 46 minutes, à 04:00 UTC
Vent 2 kt de direction variable
Température 9°C
Humidité 81%
Pression 1018 hPa
Visibilité 10 km ou plus
Ciel couvert à une hauteur de 3300 ft

METAR: LKLN 200400Z AUTO VRB02KT 9999 OVC033 09/06 Q1018

Heure: 06:46 (04:46 UTC)


TAF: absent

Observations et prévisions météorologiques de plus de 4000 aéroports (messages METAR et TAF).

Les stations disponibles sont représentées par des disques jaunes et rouges sur la carte.

Passer la souris dessus pour voir le nom de la station.

Cliquer dessus pour voir les observations et prévisions météorologiques.

Pour changer de carte: cliquez sur les boutons verts avec une croix noire pour zoomer, sur le bouton vert avec un tiret pour effectuer un zoom arrière, ou sur les flèches vertes pour les cartes adjacentes.


METAR-TAF: